This demonstration page uses our WeatherBlox Daily Observations layout. Learn more.

Left ArrowRight Arrow

30.21309, -93.2044

Hourly Observations for October 12, 2015

Temp ( °F °C ) Dew Point ( °F °C ) Humidity (%) Winds ( mph kmh ) Pressure ( in mb ) Visibility ( mi km ) Precip ( " mm )
12:15 am 00:15 Clear 65 18.3 62 16.8 91 91 Calm 29.91 1013 10 16 0.00 0.00
12:35 am 00:35 Clear 64 17.9 62 16.6 92 92 SE 3 6 29.91 1013 10 16 0.00 0.00
12:55 am 00:55 Clear 64 17.5 62 16.6 95 95 SE 3 6 29.91 1013 10 16 0.00 0.00
1:15 am 01:15 Clear 64 17.5 62 16.5 94 94 Calm 29.91 1013 10 16 0.00 0.00
1:35 am 01:35 Clear 63 17.4 62 16.6 95 95 Calm 29.91 1013 10 16 0.00 0.00
1:55 am 01:55 Clear 64 17.5 62 16.7 95 95 Calm 29.88 1012 10 16 0.00 0.00
2:15 am 02:15 Clear 64 17.5 62 16.9 96 96 Calm 29.88 1012 10 16 0.00 0.00
2:35 am 02:35 Clear 64 17.6 63 17.1 97 97 Calm 29.88 1012 10 16 0.00 0.00
2:55 am 02:55 Clear 64 17.6 63 17.1 97 97 Calm 29.88 1012 10 16 0.00 0.00
3:15 am 03:15 Clear 64 17.5 63 17.1 98 98 Calm 29.88 1012 7 11 0.00 0.00
3:35 am 03:35 Clear 63 17.2 62 16.9 98 98 Calm 29.88 1012 7 11 0.00 0.00
3:55 am 03:55 Clear 63 17 62 16.6 98 98 Calm 29.88 1012 7 11 0.00 0.00
4:15 am 04:15 Clear with Mist and Fog 63 17 62 16.7 98 98 Calm 29.88 1012 5 8 0.00 0.00
4:35 am 04:35 Clear with Mist and Fog 63 17 62 16.7 98 98 Calm 29.85 1011 5 8 0.00 0.00
4:55 am 04:55 Clear 62 16.6 61 16.3 98 98 SSE 3 6 29.85 1011 7 11 0.00 0.00
5:15 am 05:15 Clear 63 17 62 16.6 98 98 SSE 3 6 29.88 1012 7 11 0.00 0.00
6:00 am 06:00 Mostly Clear 63 17 63 17 100 100 Calm 29.88 1012 7 11 0.00 0.00
6:49 am 06:49 Mostly Clear 63 17 63 17 100 100 Calm 29.88 1012 10 16 0.00 0.00
7:55 am 07:55 Mostly Sunny 66 19 64 18 94 94 Calm 29.88 1012 10 16 0.00 0.00
8:55 am 08:55 Partly Cloudy 72 22 66 19 83 83 SSE 6 9 29.91 1013 10 16 0.00 0.00
9:50 am 09:50 Partly Cloudy 77 25 70 21 79 79 S 13 20 29.91 1013 10 16 0.00 0.00
10:50 am 10:50 Mostly Cloudy 81 27 70 21 70 70 SSW 12 19 29.91 1013 10 16 0.00 0.00
11:47 am 11:47 Mostly Cloudy 82 28 70 21 66 66 S 12 19 29.91 1013 10 16 0.00 0.00
12:50 pm 12:50 Mostly Cloudy 84 29 70 21 62 62 SSW 14 22 29.88 1012 10 16 0.00 0.00
1:50 pm 13:50 Mostly Cloudy 84 29 70 21 62 62 SSW 12 19 29.88 1012 10 16 0.00 0.00
2:50 pm 14:50 Partly Cloudy 84 29 70 21 62 62 SSW 10 17 29.85 1011 10 16 0.00 0.00
3:50 pm 15:50 Partly Cloudy 84 29 70 21 62 62 SSW 16 26 29.83 1010 10 16 0.00 0.00
4:50 pm 16:50 Partly Cloudy 82 28 70 21 66 66 S 13 20 29.83 1010 10 16 0.00 0.00
5:50 pm 17:50 Mostly Sunny 81 27 70 21 70 70 S 14 22 29.83 1010 10 16 0.00 0.00
6:50 pm 18:50 Mostly Clear 77 25 70 21 79 79 SSW 9 15 29.83 1010 10 16 0.00 0.00
7:50 pm 19:50 Mostly Clear 75 24 70 21 83 83 S 7 11 29.85 1011 10 16 0.00 0.00
8:50 pm 20:50 Mostly Clear 70 21 70 21 100 100 S 5 7 29.85 1011 10 16 0.00 0.00
9:50 pm 21:50 Mostly Clear 68 20 68 20 100 100 SSW 5 7 29.85 1011 10 16 0.00 0.00
10:15 pm 22:15 Clear 68 20.2 67 19.7 97 97 Calm 29.88 1012 10 16 0.00 0.00
10:35 pm 22:35 Clear 69 20.6 68 20.2 98 98 Calm 29.88 1012 10 16 0.00 0.00
10:55 pm 22:55 Clear 70 20.9 68 20.2 96 96 Calm 29.88 1012 10 16 0.00 0.00
11:15 pm 23:15 Clear 69 20.4 68 19.8 96 96 S 3 6 29.88 1012 10 16 0.00 0.00
11:35 pm 23:35 Clear 69 20.4 68 20.1 98 98 Calm 29.88 1012 10 16 0.00 0.00
11:55 pm 23:55 Clear 68 20.2 68 19.9 98 98 S 3 6 29.88 1012 7 11 0.00 0.00

Powered by AerisWeather